Weather History for Port Angeles, WA

Change the Weather History Date:

Saturday, September 14, 2013

  Actual Average Record
Temperature  
Mean Temperature 57 °F -  
Max Temperature 63 °F 67 °F 80 °F (2000)
Min Temperature 52 °F 48 °F 40 °F (1986)
Degree Days  
Heating Degree Days 8    
Growing Degree Days 7 (Base 50)    
Moisture  
Dew Point 55 °F    
Average Humidity 94    
Maximum Humidity 100    
Minimum Humidity 78    
Precipitation  
Precipitation 0.00 in - - ()
Sea Level Pressure  
Sea Level Pressure 29.84 in    
Wind  
Wind Speed 2 mph (NNW)    
Max Wind Speed 6 mph    
Max Gust Speed -    
Visibility 4 miles    
Events Fog    
Averages and records for this station are not official NWS values.
T = Trace of Precipitation, MM = Missing Value Source: NWS Daily Summary

Daily Weather History Graph

Daily Weather History Graph

Search for Another Location

Airport:

Trip Planner

Search our weather history database for the weather conditions in past years. The results will help you decide how hot, cold, wet, or windy it might be!

Date:

Astronomy

Sep. 14, 2013 Rise Set
Actual Time 6:50 AM PDT 7:27 PM PDT
Civil Twilight 6:18 AM PDT 7:59 PM PDT
Nautical Twilight 5:41 AM PDT 8:36 PM PDT
Astronomical Twilight 5:02 AM PDT 9:15 PM PDT
Moon 4:30 PM PDT (9/14) 1:09 AM PDT (9/14)
Length of Visible Light 13h 40m
Length of Day
12h 37m
Waxing Gibbous, 73% of the Moon is Illuminated
Sep 14
Waxing Gibbous
Sep 19
Full
Sep 26
Last Quarter
Oct 4
New
Oct 11
First Quarter

Hourly Weather History & Observations

Time (PDT) Temp. Dew Point Humidity Pressure Visibility Wind Dir Wind Speed Gust Speed Precip Events Conditions
12:53 AM 57.9 °F 57.0 °F 97% 29.89 in 1.5 mi NNW 3.5 mph - N/A   Overcast
1:53 AM 57.9 °F 57.0 °F 97% 29.89 in 1.2 mi Calm Calm - N/A   Overcast
2:12 AM 57.0 °F 55.9 °F 96% 29.89 in 2.0 mi Calm Calm - N/A   Overcast
2:22 AM 57.0 °F 55.9 °F 96% 29.89 in 1.2 mi NNW 3.5 mph - N/A   Overcast
2:33 AM 57.0 °F 55.9 °F 96% 29.89 in 0.8 mi Calm Calm - N/A   Mist
2:53 AM 57.0 °F 55.9 °F 96% 29.89 in 0.8 mi NNW 3.5 mph - N/A   Mist
3:53 AM 57.0 °F 55.9 °F 96% 29.89 in 0.8 mi NW 3.5 mph - N/A   Mist
4:01 AM 57.0 °F 55.9 °F 96% 29.89 in 1.2 mi NW 4.6 mph - N/A   Overcast
4:29 AM 57.0 °F 55.9 °F 96% 29.89 in 2.0 mi NW 4.6 mph - N/A   Overcast
4:41 AM 57.0 °F 55.9 °F 96% 29.89 in 1.8 mi NW 3.5 mph - N/A   Overcast
4:53 AM 55.9 °F 55.0 °F 97% 29.89 in 1.2 mi NW 3.5 mph - N/A   Overcast
5:15 AM 55.9 °F 55.0 °F 97% 29.88 in 2.5 mi WNW 3.5 mph - N/A   Overcast
5:53 AM 55.9 °F 55.0 °F 97% 29.88 in 1.8 mi Calm Calm - N/A   Overcast
6:07 AM 55.9 °F 55.0 °F 97% 29.88 in 2.5 mi WNW 3.5 mph - N/A   Overcast
6:50 AM 55.4 °F 55.4 °F 100% 29.88 in 3.0 mi Calm Calm - N/A   Overcast
6:53 AM 55.9 °F 55.0 °F 97% 29.88 in 3.0 mi Calm Calm - N/A   Overcast
7:15 AM 55.9 °F 55.0 °F 97% 29.88 in 1.8 mi Calm Calm - N/A   Overcast
7:43 AM 55.9 °F 55.0 °F 97% 29.88 in 2.5 mi NW 3.5 mph - N/A   Overcast
7:53 AM 55.9 °F 55.0 °F 97% 29.88 in 3.0 mi WNW 3.5 mph - N/A   Overcast
8:53 AM 57.0 °F 55.9 °F 96% 29.88 in 6.0 mi Calm Calm - N/A   Overcast
9:30 AM 55.9 °F 55.0 °F 97% 29.88 in 1.8 mi Calm Calm - N/A   Overcast
9:46 AM 55.9 °F 55.0 °F 97% 29.88 in 0.5 mi North 3.5 mph - N/A Fog Fog
9:53 AM 55.9 °F 55.0 °F 97% 29.88 in 0.2 mi NNE 3.5 mph - N/A Fog Fog
10:08 AM 55.9 °F 55.0 °F 97% 29.88 in 0.5 mi Calm Calm - N/A Fog Fog
10:34 AM 57.0 °F 55.9 °F 96% 29.88 in 0.2 mi NE 3.5 mph - N/A Fog Fog
10:53 AM 55.9 °F 55.0 °F 97% 29.88 in 0.2 mi NNE 4.6 mph - N/A Fog Fog
11:37 AM 57.0 °F 55.9 °F 96% 29.87 in 1.0 mi Calm Calm - N/A   Overcast
11:48 AM 57.2 °F 55.4 °F 94% 29.87 in 3.0 mi Variable 3.5 mph - N/A   Overcast
11:53 AM 57.0 °F 55.9 °F 96% 29.87 in 3.0 mi NE 3.5 mph - N/A   Overcast
12:02 PM 57.0 °F 55.9 °F 96% 29.87 in 2.0 mi NE 3.5 mph - N/A   Overcast
12:15 PM 57.9 °F 55.9 °F 93% 29.87 in 4.0 mi NNE 4.6 mph - N/A   Overcast
12:53 PM 60.1 °F 55.9 °F 86% 29.86 in 10.0 mi NE 3.5 mph - N/A   Overcast
1:09 PM 60.1 °F 55.0 °F 83% 29.85 in 10.0 mi Variable 4.6 mph - N/A   Scattered Clouds
1:53 PM 60.1 °F 55.0 °F 83% 29.84 in 10.0 mi North 5.8 mph - N/A   Clear
2:53 PM 62.1 °F 55.0 °F 78% 29.83 in 10.0 mi NNW 4.6 mph - N/A   Clear
3:53 PM 60.1 °F 54.0 °F 80% 29.82 in 10.0 mi North 4.6 mph - N/A   Clear
4:53 PM 57.0 °F 54.0 °F 89% 29.80 in 10.0 mi North 3.5 mph - N/A   Clear
5:04 PM 57.9 °F 54.0 °F 87% 29.80 in 6.0 mi Variable 4.6 mph - N/A   Partly Cloudy
5:17 PM 55.9 °F 54.0 °F 93% 29.79 in 1.8 mi North 3.5 mph - N/A   Scattered Clouds
5:27 PM 57.9 °F 55.0 °F 90% 29.79 in 3.0 mi Calm Calm - N/A   Scattered Clouds
5:53 PM 59.0 °F 54.0 °F 83% 29.78 in 10.0 mi Calm Calm - N/A   Clear
6:53 PM 57.0 °F 54.0 °F 89% 29.78 in 10.0 mi Calm Calm - N/A   Clear
7:53 PM 54.0 °F 52.0 °F 93% 29.77 in 10.0 mi Calm Calm - N/A   Clear
8:46 PM 54.0 °F 52.0 °F 93% 29.77 in 7.0 mi Calm Calm - N/A   Scattered Clouds
8:53 PM 54.0 °F 52.0 °F 93% 29.78 in 9.0 mi Calm Calm - N/A   Scattered Clouds
9:53 PM 52.0 °F 51.1 °F 97% 29.78 in 5.0 mi Calm Calm - N/A   Clear
10:20 PM 54.0 °F 52.0 °F 93% 29.77 in 9.0 mi Calm Calm - N/A   Scattered Clouds
10:28 PM 54.0 °F 52.0 °F 93% 29.77 in 10.0 mi WSW 3.5 mph - N/A   Mostly Cloudy
10:50 PM 53.6 °F 53.6 °F 100% 29.77 in 1.8 mi WSW 3.5 mph - N/A   Overcast
10:53 PM 54.0 °F 53.1 °F 97% 29.77 in 0.8 mi SW 3.5 mph - N/A   Overcast
11:35 PM 54.0 °F 53.1 °F 97% 29.77 in 1.2 mi WSW 3.5 mph - N/A   Overcast
11:49 PM 53.6 °F 53.6 °F 100% 29.77 in 0.5 mi WNW 4.6 mph - N/A Fog Fog
11:53 PM 54.0 °F 53.1 °F 97% 29.77 in 0.5 mi WNW 3.5 mph - N/A Fog Fog